Total_Precipitation_Accumulation
0.04 0.04 0.07 0.13 0.26 0.43 0.56 0.49 0.45 0.61 0.67 0.63 0.65 0.64 0.67 0.77 1.14 1.98 1.48 0.97 0.62 0.46 0.45 0.49 0.55 0.53 0.54 0.51 0.56 0.51 0.48 0.53 0.58 0.57 0.64 0.73 0.68 0.67 0.66 0.72 0.91 1.21 1.40 1.44 1.54 1.74 1.94 2.08 2.11
0.05 0.06 0.09 0.14 0.32 0.55 0.64 0.48 0.51 0.61 0.64 0.70 0.67 0.74 0.75 0.68 0.64 0.75 0.97 0.80 0.50 0.41 0.46 0.47 0.61 0.64 0.59 0.55 0.56 0.56 0.55 0.57 0.63 0.69 0.70 0.78 0.74 0.73 0.77 0.84 0.95 1.24 1.44 1.63 1.67 1.72 1.92 2.03 1.92
0.07 0.09 0.09 0.14 0.34 0.58 0.67 0.60 0.57 0.63 0.68 0.78 0.82 0.91 0.87 0.86 0.74 0.87 0.97 0.73 0.50 0.48 0.50 0.54 0.62 0.68 0.74 0.73 0.71 0.71 0.68 0.69 0.72 0.79 0.84 0.94 0.90 0.84 0.88 0.95 1.03 1.26 1.40 1.65 1.91 1.91 1.90 1.86 1.75
0.08 0.08 0.11 0.19 0.39 0.42 0.47 0.59 0.60 0.65 0.77 0.77 0.71 0.91 1.01 1.00 0.87 0.91 0.95 0.74 0.56 0.60 0.63 0.57 0.77 0.89 0.93 0.92 0.86 0.85 0.81 0.81 0.88 0.91 0.90 0.99 0.99 0.98 1.05 1.10 1.18 1.43 1.55 1.62 1.88 2.12 2.15 1.99 2.10
0.07 0.08 0.14 0.28 0.39 0.40 0.40 0.56 0.66 0.71 0.76 0.80 0.87 1.08 1.26 1.36 1.15 1.09 1.08 0.85 0.79 0.88 0.87 0.72 0.79 0.83 0.92 0.93 0.96 0.92 0.90 0.88 0.97 1.02 0.99 0.99 0.97 0.98 1.15 1.34 1.41 1.55 1.69 1.71 1.79 1.97 2.12 2.11 2.36
0.09 0.10 0.22 0.35 0.46 0.45 0.44 0.52 0.64 0.78 0.87 0.84 1.01 1.27 1.70 1.82 1.67 1.45 1.15 0.96 0.90 1.05 1.00 0.79 0.82 0.82 0.96 1.02 1.04 1.01 0.99 1.00 1.07 1.14 1.10 1.06 1.03 1.09 1.26 1.45 1.60 1.68 1.68 1.75 1.89 1.93 2.10 2.37 2.55
0.07 0.10 0.19 0.33 0.44 0.47 0.48 0.55 0.73 0.87 1.04 1.01 1.08 1.42 1.83 1.90 1.67 1.47 1.24 1.11 1.01 1.10 1.14 0.98 1.00 0.99 1.06 1.15 1.16 1.24 1.18 1.18 1.22 1.21 1.31 1.23 1.20 1.33 1.47 1.54 1.65 1.69 1.71 1.66 1.74 1.93 1.93 2.22 2.40
0.05 0.12 0.21 0.34 0.42 0.40 0.45 0.58 0.79 0.89 1.02 1.09 1.28 1.41 1.95 1.99 1.75 1.58 1.51 1.52 1.59 1.81 1.86 1.63 1.49 1.45 1.37 1.32 1.26 1.36 1.34 1.36 1.46 1.39 1.40 1.42 1.43 1.49 1.61 1.62 1.72 1.70 1.63 1.66 1.67 1.83 1.94 1.99 2.00
0.06 0.10 0.20 0.30 0.40 0.41 0.49 0.75 0.79 0.86 1.05 1.08 1.14 1.17 1.58 1.72 1.75 1.94 2.03 2.21 2.40 2.59 2.67 2.28 1.86 1.71 1.92 1.77 1.43 1.61 1.52 1.48 1.53 1.52 1.53 1.61 1.87 2.06 2.11 1.89 2.08 2.05 1.89 1.82 1.85 1.87 1.89 1.85 1.88
0.06 0.12 0.20 0.30 0.36 0.38 0.51 0.79 0.86 0.88 1.06 1.14 1.13 1.13 1.33 1.66 1.90 2.14 2.54 3.11 3.03 2.90 2.90 2.58 2.09 2.21 2.46 2.15 2.06 2.02 1.80 1.73 1.66 1.80 1.82 1.99 2.55 2.74 2.39 2.46 2.43 2.45 2.37 2.28 2.25 2.22 2.09 1.88 1.73
0.08 0.14 0.19 0.25 0.39 0.44 0.56 0.79 0.94 1.10 1.25 1.27 1.36 1.47 1.65 1.93 2.01 2.17 2.63 3.18 3.33 3.00 2.71 2.37 2.30 2.38 2.65 2.67 2.56 2.47 2.45 2.45 2.46 2.52 2.53 2.76 2.93 2.79 2.64 2.91 2.75 2.71 2.63 2.56 2.61 2.45 2.12 2.05 2.06
0.10 0.15 0.20 0.24 0.37 0.48 0.62 0.87 1.05 1.28 1.48 1.48 1.47 1.54 1.87 2.01 2.04 2.37 2.98 2.92 2.94 2.96 2.88 2.80 2.84 2.72 2.97 3.39 3.40 3.18 3.10 3.05 2.98 2.94 2.80 3.14 3.33 3.25 3.24 3.31 3.23 3.37 3.36 3.32 2.96 2.73 2.50 2.42 2.20
0.13 0.16 0.18 0.24 0.44 0.52 0.58 0.86 0.88 1.09 1.31 1.34 1.33 1.46 1.75 2.04 2.31 2.78 3.12 3.15 3.14 3.27 3.18 3.14 3.23 3.23 3.36 3.85 4.10 3.82 3.69 3.50 3.38 3.29 3.29 3.36 3.37 3.42 3.58 3.54 3.72 3.69 3.61 3.44 3.22 2.81 2.78 2.61 2.46
0.14 0.17 0.22 0.31 0.45 0.53 0.53 0.65 0.74 1.01 1.15 1.24 1.48 1.53 1.74 2.04 2.55 2.99 3.18 3.31 3.45 3.55 3.36 3.28 3.34 3.33 3.43 3.71 3.98 4.04 3.98 4.05 3.94 3.67 3.62 3.65 3.62 3.70 3.75 3.76 3.73 3.57 3.41 3.47 3.42 3.21 3.17 2.96 2.77
0.16 0.22 0.31 0.38 0.44 0.45 0.49 0.67 0.82 0.97 1.10 1.15 1.48 1.78 1.96 2.38 2.71 3.00 3.16 3.51 3.69 3.83 3.81 3.64 3.63 3.77 3.72 3.75 3.84 3.82 3.86 4.15 4.21 4.19 4.17 3.96 3.84 3.86 3.86 3.89 3.78 3.61 3.56 3.66 3.58 3.53 3.49 3.30 3.13
0.27 0.31 0.36 0.41 0.44 0.44 0.52 0.87 0.92 1.07 1.12 1.19 1.24 1.67 2.10 2.44 2.44 2.55 2.83 3.39 4.05 4.27 4.24 3.86 3.53 3.84 3.93 3.98 4.00 4.01 4.05 4.28 4.30 4.25 4.42 4.19 4.22 4.10 3.99 3.80 3.63 3.58 3.57 3.81 3.86 3.76 3.80 3.66 3.52
0.35 0.38 0.41 0.46 0.46 0.45 0.57 0.96 1.11 1.21 1.26 1.36 1.41 1.71 2.12 2.20 2.17 2.33 2.75 3.39 4.24 4.78 4.57 4.05 3.79 3.90 4.08 4.08 4.20 4.40 4.57 4.58 4.48 4.34 4.45 4.33 4.38 4.32 4.23 4.20 4.12 3.97 4.05 4.08 3.75 3.86 3.97 4.01 3.94
0.29 0.33 0.43 0.48 0.47 0.49 0.62 0.89 1.07 1.31 1.40 1.63 1.73 1.83 2.01 2.13 2.13 2.28 2.76 3.46 4.23 4.89 4.80 4.39 4.20 4.45 4.47 4.38 4.40 4.51 4.64 4.68 4.79 4.81 4.76 4.64 4.61 4.70 4.92 4.92 4.78 4.56 4.46 4.43 4.48 4.46 4.18 3.99 3.96
0.25 0.32 0.42 0.48 0.45 0.53 0.65 0.88 1.01 1.22 1.39 1.60 1.73 1.79 1.75 1.82 2.02 2.34 2.82 3.53 3.99 4.16 4.25 4.46 4.51 4.61 4.64 4.66 4.65 4.80 4.97 5.00 5.00 5.15 5.19 5.06 4.99 5.17 5.56 5.62 5.48 5.10 4.78 4.62 4.62 4.63 4.42 4.10 3.91
0.27 0.33 0.42 0.49 0.43 0.52 0.72 0.94 1.11 1.27 1.41 1.51 1.60 1.66 1.61 1.64 1.90 2.34 2.82 3.31 3.60 3.98 4.18 4.43 4.47 4.65 4.92 5.32 5.83 6.10 6.24 6.11 5.94 5.84 5.78 5.63 5.53 5.66 5.79 5.93 5.61 5.24 5.03 4.74 4.50 4.49 4.34 4.04 3.98
0.28 0.31 0.41 0.51 0.55 0.59 0.83 1.26 1.32 1.40 1.62 1.75 1.73 1.79 1.85 1.71 1.89 2.25 2.49 2.90 3.21 3.60 3.95 4.21 4.56 4.94 5.45 6.14 6.97 7.32 7.12 6.66 6.43 6.13 6.07 5.81 5.59 5.59 5.77 5.53 5.28 5.10 4.86 4.62 4.42 4.43 4.41 4.06 3.91
0.25 0.21 0.29 0.40 0.56 0.70 0.71 1.34 1.66 1.78 1.95 2.10 1.89 1.82 1.86 1.88 1.90 2.08 2.34 2.66 2.88 3.23 3.69 4.17 4.72 5.30 5.99 6.64 7.11 7.34 7.25 6.97 6.65 6.19 5.79 5.41 5.10 4.93 4.87 4.77 4.57 4.49 4.34 4.17 3.94 4.00 4.13 4.07 3.81
0.17 0.17 0.23 0.30 0.44 0.65 0.64 1.03 1.71 1.96 2.09 2.17 1.99 1.93 1.89 1.88 1.80 1.91 2.09 2.34 2.67 3.12 3.61 4.13 4.64 5.35 5.88 6.43 6.83 7.11 7.10 7.00 6.63 5.90 5.25 4.82 4.46 4.21 3.92 3.75 3.72 3.72 3.67 3.49 3.30 3.34 3.40 3.38 3.37
0.16 0.20 0.29 0.37 0.48 0.79 0.65 0.95 1.78 2.20 2.27 2.14 2.06 2.06 1.89 1.79 1.86 1.94 1.97 2.13 2.64 3.11 3.64 4.02 4.37 5.08 5.78 6.28 6.64 6.92 6.91 6.74 6.11 5.36 4.79 4.39 4.06 3.79 3.52 3.37 3.26 3.24 3.17 3.00 2.88 2.87 2.86 2.87 2.91
0.21 0.39 0.74 0.91 0.98 0.88 0.63 1.01 1.82 1.97 1.97 1.96 1.80 1.75 1.78 1.77 1.77 1.78 2.00 2.22 2.83 3.30 3.54 3.79 4.09 4.55 5.05 5.48 5.79 5.98 6.02 5.77 5.32 4.89 4.43 4.05 3.79 3.51 3.15 2.81 2.67 2.64 2.73 2.74 2.73 2.69 2.61 2.62 2.65
0.24 0.39 0.82 1.10 1.14 1.02 0.97 1.66 2.24 1.93 1.84 1.87 1.82 1.64 1.64 1.75 1.69 1.68 1.94 2.25 2.46 2.75 3.06 3.39 3.63 3.95 4.24 4.43 4.66 4.64 4.60 4.54 4.32 3.97 3.58 3.29 2.99 2.79 2.60 2.37 2.24 2.23 2.33 2.41 2.52 2.46 2.31 2.30 2.43
0.25 0.33 0.39 0.63 0.72 1.03 1.44 1.93 2.38 2.22 2.11 1.87 1.78 1.71 1.70 1.65 1.61 1.72 1.95 2.12 2.21 2.40 2.66 2.87 3.02 3.31 3.47 3.47 3.49 3.43 3.31 3.32 3.31 3.17 2.88 2.57 2.34 2.17 2.10 2.05 2.04 1.89 1.95 2.11 2.22 2.20 2.15 2.21 2.24
0.22 0.30 0.43 0.76 1.07 1.35 1.64 2.35 2.89 2.87 2.57 2.24 1.94 1.75 1.58 1.61 1.67 1.77 1.89 2.11 2.20 2.21 2.42 2.58 2.58 2.66 2.80 2.88 2.75 2.55 2.61 2.70 2.68 2.61 2.38 2.17 1.96 1.80 1.72 1.74 1.73 1.64 1.65 1.81 1.95 1.98 2.09 2.18 2.11
0.28 0.35 0.49 0.74 0.88 1.43 1.99 2.73 2.69 2.77 2.59 2.44 2.31 1.92 1.73 1.77 1.83 1.89 1.88 1.98 2.04 2.04 2.12 2.25 2.28 2.32 2.34 2.42 2.41 2.30 2.21 2.15 2.14 2.16 2.09 1.94 1.81 1.70 1.64 1.58 1.61 1.64 1.59 1.64 1.77 1.79 1.88 1.99 2.00
0.31 0.36 0.52 0.91 1.04 1.20 1.77 2.70 2.27 2.62 2.69 2.53 2.35 2.03 1.93 2.01 2.00 2.03 2.02 1.95 1.97 2.12 2.24 2.16 2.15 2.15 2.17 2.14 2.17 2.21 2.02 1.90 1.85 1.83 1.80 1.68 1.65 1.62 1.58 1.53 1.54 1.54 1.52 1.54 1.57 1.56 1.62 1.77 1.78